Location: Acts Church of Fort Worth
(32.6786°N, 97.2668°W)
Time: 20:22:47
(UTC+00:00)

Cosmos 1821 Rocket - Pass Details

Date: 18 January 2026
Orbit: 943 x 1004 km, 82.9° (Epoch: 10 February)

Event Time Altitude Azimuth Distance (km) Brightness Sun altitude
Rises 00:36:39 0° 353° (N) 3,652 6.9 -10.4°
Reaches altitude 10° 00:39:10 10° 353° (N) 2,694 6.2 -10.9°
Maximum altitude 00:45:20 85° 265° (W) 957 4.0 -12.1°
Drops below altitude 10° 00:51:24 10° 178° (S) 2,653 6.5 -13.4°
Sets 00:53:51 0° 177° (S) 3,592 7.1 -13.9°
